Regional Weather Roundup
Issued by NWS Midland/Odessa, TX

Home | Current Version | Previous Version | Text Only | Print | Product List | Glossary On
Versions: 1 2 3 4 5 6 7 8 9 10 11 12 13 14 15 16 17 18 19 20 21 22 23 24 25 26 27 28 29 30 31 32 33 34 35 36 37 38 39 40 41 42 43 44 45 46 47 48 49 50
000
ASUS44 KMAF 190101
RWRMAF
MIDLAND AREA WEATHER ROUNDUP
NATIONAL WEATHER SERVICE MIDLAND TX
800 PM CDT WED OCT 18 2017

...IN SOUTHWEST TEXAS AND SOUTHEAST NEW MEXICO...

CITY           SKY/WX    TMP DP  RH WIND       PRES   REMARKS
ALPINE         CLOUDY    73  37  26 S9        30.16R
ANDREWS        FAIR      67  46  46 SE5       30.05S
ARTESIA        CLOUDY    72  48  43 S7        30.02R
BIG SPRING     MOCLDY    70  39  32 SE7       30.06R
CARLSBAD       CLEAR     71  52  50 S9        30.00R
DRYDEN           N/A     70  49  47 E8        30.05R
FORT STOCKTON  PTCLDY    73  45  36 SE14      30.04R
GUAD PASS      CLOUDY    73  39  29 SW5       30.17S
HOBBS          CLEAR     64  48  55 S8        30.05R
LAMESA         FAIR      70  41  35 SE13      30.05R
MARFA          PTCLDY    69  41  36 SE6       30.15R
MIDLAND AIRPK  PTCLDY    74  39  27 SE10      30.04R
MIDLAND INTL   PTCLDY    70  41  34 SE9       30.04R
ODESSA         NOT AVBL
PECOS          PTCLDY    75  51  43 E9        29.98S
PRESIDIO       FAIR      83  37  19 SE6       30.01R
SEMINOLE       PTCLDY    71  43  37 S8        30.05R
SNYDER         PTCLDY    72  35  26 S9        30.05R
WINK           PTCLDY    73  45  36 SE10      30.00R
$$
...OTHER STATIONS IN TEXAS...

CITY           SKY/WX    TMP DP  RH WIND       PRES   REMARKS
ABILENE        CLEAR     69  41  36 SE9       30.05R
AMARILLO       CLOUDY    63  51  65 SE9       30.05R
AUSTIN         CLOUDY    61  54  77 CALM      30.09R
BROWNSVILLE    CLEAR     74  66  76 E6        30.07R
CORPUS CHRISTI MOCLDY    71  63  75 E7        30.08R
DALLAS FTW     MOCLDY    69  42  37 SE9       30.07R
DEL RIO        PTCLDY    71  52  50 SE9       30.04R
EL PASO        MOCLDY    78  47  33 S3        30.05S
HOUSTON INT    PTCLDY    71  62  73 SE9       30.11R
LUBBOCK        PTCLDY    71  46  40 S10       30.03R
SAN ANGELO     CLOUDY    70  42  36 SE6       30.05R
SAN ANTONIO    CLOUDY    70  48  45 SE5       30.09R
WACO           CLOUDY    69  43  38 SE9       30.08R
WICHITA FALLS  PTCLDY    62  50  64 S10       30.01R
$$
...OTHER LOCATIONS IN NEW MEXICO...

CITY           SKY/WX    TMP DP  RH WIND       PRES   REMARKS
ALAMOGORDO     CLEAR     72  39  30 CALM      30.08S
ALBUQUERQUE    CLOUDY    71  21  15 S5        30.14S
CANNON AFB     CLEAR     64  42  44 CALM      30.08R
CLOVIS         CLEAR     65  43  44 SE3       30.07R HAZE
HOLLOMAN AFB   CLEAR     75  39  27 CALM      30.08S
ROSWELL        CLEAR     71  49  45 S7        30.02R
RUIDOSO        CLOUDY    63  32  31 NW7       30.26R
SANTA FE       CLOUDY    61  24  24 NW5       30.19S
TRUTH OR CONSE MOCLDY    77  37  23 S7        30.09S
TUCUMCARI      NOT AVBL
$$



USA.gov is the U.S. government's official web portal to all federal, state and local government web resources and services.